Weather History for New Delhi, India

Change the Weather History Date:

Tuesday, May 14, 2013

  Actual Average Record
Temperature  
Mean Temperature 94 °F -  
Max Temperature 107 °F 101 °F 113 °F (2002)
Min Temperature 80 °F 80 °F 68 °F (2014)
Cooling Degree Days 28    
Growing Degree Days 44 (Base 50)    
Moisture  
Dew Point 54 °F    
Average Humidity 28    
Maximum Humidity 48    
Minimum Humidity 14    
Precipitation  
Precipitation 0.00 in - - ()
Sea Level Pressure  
Sea Level Pressure 29.63 in    
Wind  
Wind Speed 3 mph ()    
Max Wind Speed 29 mph    
Max Gust Speed 40 mph    
Visibility 1.9 miles    
Events      
Averages and records for this station are not official NWS values.
T = Trace of Precipitation, MM = Missing Value Source: Averaged Metar Reports

Daily Weather History Graph

Daily Weather History Graph

Search for Another Location

Airport:

Trip Planner

Search our weather history database for the weather conditions in past years. The results will help you decide how hot, cold, wet, or windy it might be!

Date:

Astronomy

May. 14, 2013 Rise Set
Actual Time 5:31 AM IST 7:04 PM IST
Civil Twilight 5:05 AM IST 7:30 PM IST
Nautical Twilight 4:35 AM IST 8:01 PM IST
Astronomical Twilight 4:03 AM IST 8:33 PM IST
Moon 8:46 AM IST (5/14) 10:35 PM IST (5/14)
Length of Visible Light 14h 24m
Length of Day
13h 33m
Waxing Crescent, 16% of the Moon is Illuminated
May 14
Waxing Crescent
May 18
First Quarter
May 25
Full
Jun 1
Last Quarter
Jun 8
New

Hourly Weather History & Observations

Time (IST) Temp. Heat Index Dew Point Humidity Pressure Visibility Wind Dir Wind Speed Gust Speed Precip Events Conditions
12:00 AM 87.8 °F 86.5 °F 57.2 °F 35% 29.68 in 1.9 mi ENE 3.5 mph - N/A   Haze
12:30 AM 87.8 °F 86.5 °F 57.2 °F 35% 29.65 in 1.9 mi Calm Calm - N/A   Haze
1:00 AM 87.8 °F 86.5 °F 57.2 °F 35% 29.65 in 1.9 mi Calm Calm - N/A   Haze
2:00 AM 86.0 °F 84.9 °F 57.2 °F 37% 29.65 in 1.6 mi Calm Calm - N/A   Haze
2:30 AM 86.0 °F 84.9 °F 57.2 °F 37% 29.65 in 1.6 mi Calm Calm - N/A   Haze
3:00 AM 84.2 °F 83.5 °F 57.2 °F 40% 29.65 in 1.6 mi Calm Calm - N/A   Haze
3:30 AM 84.2 °F 83.5 °F 57.2 °F 40% 29.65 in 1.6 mi Calm Calm - N/A   Haze
4:00 AM 84.2 °F 83.5 °F 57.2 °F 40% 29.65 in 1.6 mi Calm Calm - N/A   Haze
5:00 AM 80.6 °F 81.1 °F 59.0 °F 48% 29.65 in 1.4 mi Calm Calm - N/A   Haze
5:30 AM 80.6 °F 81.1 °F 59.0 °F 48% 29.65 in 1.4 mi Calm Calm - N/A   Haze
6:00 AM 82.4 °F 82.5 °F 59.0 °F 45% 29.65 in 1.4 mi Calm Calm - N/A   Haze
6:30 AM 82.4 °F 82.5 °F 59.0 °F 45% 29.65 in 1.4 mi Calm Calm - N/A   Haze
7:00 AM 84.2 °F 83.8 °F 59.0 °F 42% 29.68 in 1.2 mi Calm Calm - N/A   Haze
7:30 AM 86.0 °F 85.4 °F 59.0 °F 40% 29.68 in 1.2 mi Calm Calm - N/A   Smoke
8:00 AM 89.6 °F 87.7 °F 55.4 °F 31% 29.68 in 1.4 mi SW 4.6 mph - N/A   Haze
8:30 AM 93.2 °F 91.3 °F 55.4 °F 28% 29.68 in 1.5 mi WSW 4.6 mph - N/A   Haze
9:00 AM 95.0 °F 93.7 °F 57.2 °F 28% 29.68 in 1.5 mi WSW 3.5 mph - N/A   Haze
10:00 AM 100.4 °F 98.8 °F 55.4 °F 22% 29.68 in 1.6 mi SW 5.8 mph - N/A   Haze
10:30 AM 100.4 °F 98.4 °F 53.6 °F 21% 29.71 in 1.6 mi NNW 11.5 mph - N/A   Haze
11:30 AM 102.2 °F 100.4 °F 53.6 °F 20% 29.68 in 2.2 mi WSW 6.9 mph - N/A   Haze
12:00 PM 102.2 °F 100.4 °F 53.6 °F 20% 29.68 in 2.2 mi North 5.8 mph - N/A   Haze
12:30 PM 102.2 °F 100.4 °F 53.6 °F 20% 29.65 in 2.2 mi North 4.6 mph - N/A   Haze
1:00 PM 102.2 °F - 51.8 °F 18% 29.62 in 2.5 mi West 6.9 mph - N/A   Haze
1:30 PM 104.0 °F - 50.0 °F 16% 29.62 in 2.5 mi NW 6.9 mph - N/A   Haze
2:00 PM 104.0 °F - 50.0 °F 16% 29.62 in 2.5 mi West 10.4 mph - N/A   Haze
2:30 PM 105.8 °F - 48.2 °F 14% 29.59 in 2.5 mi NW 11.5 mph - N/A   Haze
3:00 PM 107.6 °F - 48.2 °F 14% 29.59 in - NW 11.5 mph - N/A   Haze
3:30 PM 104.0 °F 102.3 °F 53.6 °F 19% 29.56 in - NW 9.2 mph 20.7 mph N/A   Haze
4:00 PM 104.0 °F - 51.8 °F 17% 29.56 in 2.2 mi NW 9.2 mph 20.7 mph N/A   Haze
4:30 PM 102.2 °F - 51.8 °F 18% 29.56 in 2.2 mi NW 9.2 mph 20.7 mph N/A   Haze
5:00 PM 102.2 °F - 51.8 °F 18% 29.53 in 2.2 mi NNW 9.2 mph 20.7 mph N/A   Haze
5:30 PM 102.2 °F - 51.8 °F 18% 29.53 in 2.2 mi NNW 9.2 mph 20.7 mph N/A   Haze
6:00 PM 100.4 °F - 51.8 °F 20% 29.53 in 2.2 mi NNW 9.2 mph 20.7 mph N/A   Haze
6:30 PM 100.4 °F 98.4 °F 53.6 °F 21% 29.56 in 2.2 mi NNW 9.2 mph 20.7 mph N/A   Haze
7:00 PM 93.2 °F - 50.0 °F 23% 29.59 in 0.9 mi West 28.8 mph 40.3 mph N/A   Scattered Clouds
8:00 PM 91.4 °F - 48.2 °F 23% 29.59 in 1.6 mi SSW 8.1 mph - N/A   Haze
9:00 PM 89.6 °F - 48.2 °F 24% 29.59 in - NNW 2.3 mph - N/A   Haze
9:30 PM 89.6 °F - 48.2 °F 24% 29.59 in - Calm Calm - N/A   Haze
10:00 PM 87.8 °F - 50.0 °F 27% 29.59 in 2.2 mi SSW 3.5 mph - N/A   Haze
10:30 PM 87.8 °F - 50.0 °F 27% 29.62 in 2.2 mi SW 2.3 mph - N/A   Haze
11:00 PM 86.0 °F - 51.8 °F 31% 29.62 in 2.2 mi WSW 2.3 mph - N/A   Haze
11:30 PM 86.0 °F - 50.0 °F 29% 29.62 in 2.2 mi Calm Calm - N/A   Haze